{"data":{"norad_id":67581,"epoch":"2026-05-25T03:30:40.834944Z","epoch_age_seconds":63166,"freshness":"FRESH","line1":"1 67581U 26016W   26145.14630596  .00019987  00000+0  61968-3 0  9990","line2":"2 67581  97.2840 205.5133 0001186  87.1318 273.0060 15.33451284 18588","mean_motion":15.33451284,"eccentricity":0.0001186,"inclination_deg":97.284,"raan_deg":205.5133,"arg_perigee_deg":87.1318,"mean_anomaly_deg":273.006,"bstar":0.00061968,"rev_number":1858,"period_min":93.905819834313,"perigee_km":464.71281952789,"apogee_km":466.33613603042,"semimajor_km":6843.6614777792,"source":"CELESTRAK","updated_at":"2026-05-25T13:38:21.617598Z"}}